COSMOS 1275 DEB

Satellite information

Favourite Embed

Satellite Type and Status

DEBRISIN ORBIT

Key statistics

Satellite COSMOS 1275 DEB at a glance.

Uptime

16044

Days in orbit

Revolutions

≈ 14.5

Per day

Orbit

LEO

Low Earth Orbit

Inclination

82.9

Latest

Satellite identification and parameters

Extended collection of information and parameters for COSMOS 1275 DEB.

Object identification

Identified? True

Debris? True

Object name: COSMOS 1275 DEB

International designator: 1981-053UL

Object number (NORAD): 42220

Object ID (CCSDS): 42220

Country: COMMONWEALTH OF INDEPENDENT STATES (CIS)

Current information (Y/N): Y

RCS size: SMALL

Orbital parameters

Period: 99.243 minutes

Inclination: 82.9058 deg

SMA: 7100.556 km

Apoapsis: 739.728 km

Periapsis: 705.114 km

RAAN: 277.5091 deg

Eccentricy: 0.0024374

Argument of periapsis: 122.5768 deg

Mean anomaly: 237.7789 deg

Mean motion: 14.50989277 rev/day

Mean motion (dot): 0.0001238 rev/day2

B* drag term: 0.0031121 1/REarth

Two-line elements (TLE)

Creation date: May 8, 2025, 3:01 a.m.

Reference frame: TEME

Reference center: EARTH

Epoch: May 7, 2025, 9:45 a.m. UTC

TLE line 0: 0 COSMOS 1275 DEB

TLE line 1: 1 42220U 81053UL 25127.40646864 .00012380 00000-0 31121-2 0 9996

TLE line 2: 2 42220 82.9058 277.5091 0024374 122.5768 237.7789 14.50989277596865

Live tracking on map

Real-time ground track for satellite COSMOS 1275 DEB.

In-orbit conjunctions

A list of the most updated potential collisions computed for object COSMOS 1275 DEB.

Target Orbit TCA Probability of collision Miss distance Type
COSMOS 332 LEO 2024-12-21 19:11:49 0.000132782 284.0 (m) PAYLOAD
ORBCOMM FM 3 SSO 2024-10-10 10:16:34 0.0001165853 306.0 (m) PAYLOAD

Associated space launch

Navigation satellite providing location information for the Tsiklon-B navigation system

COSMOS 1275 DEB was lifted into orbit during the mission ‘Kosmos-3M | Parus 27’, on board a Kosmos-3M space rocket.

The launch took place on June 4, 1981, 3:41 p.m. from 132/2.

For more information about the launch, click the button.

Launch to space Kosmos-3M | Parus 27
Kosmos-3M | Parus 27

Agency: N/A

Status: Launch Successful

Launch date: June 4, 1981, 3:41 p.m. UTC

Rocket: Kosmos-3M

Launch pad: 132/2

Location: Plesetsk Cosmodrome, Russian Federation

...

Latest news about this satellite

There are no fresh news available about this satellite. Check back as we update our databases every day.


Newsletter sign-up

Weekly statistics, charts and insights to help you stay on top of the space industry.